696  
ASUS42 KCHS 151527  
RWRCHS  
 
REGIONAL WEATHER ROUNDUP  
NATIONAL WEATHER SERVICE CHARLESTON SC  
1100 AM EDT WED AUG 15 2018  
 
NOTE: "FAIR" INDICATES FEW OR NO CLOUDS BELOW 12,000 FEET WITH NO  
SIGNIFICANT WEATHER AND/OR S TO VISIBILITY
.  
 
NOT ALL STATIONS ARE QUALITY CONTROLLED. USE DATA WITH CAUTION,  
ESPECIALLY DEWPOINT OBSERVATIONS.  
 
SCZ027-030-031-034>040-042>050-151600-   
..SOUTHEAST SOUTH CAROLINA
 
 
 
CITY SKY/WX TMP DP RH WIND PRES REMARKS
 
N CHARLESTON FAIR 85 74 69 NW7 30.09R HX 92  
WATERFRONT PRK N/A 82 75 79 SW6 29.93R  
MOUNT PLEASANT FAIR 84 75 74 CALM 30.10R HX 92  
JOHNS ISLAND PTSUNNY 84 75 74 SW5 30.10R HX 92  
PINOPOLIS N/A 79 75 89 VRB3 30.03R  
MONCKS CORNER FAIR 82 73 74 CALM 30.09S  
SUMMERVILLE FAIR 82 72 69 SW5 30.10S  
BEAUFORT MCAS FAIR 85 75 72 SW8 30.10R HX 93  
BEAUFORT ARPT FAIR 84 73 70 SW6 30.10R HX 91  
HILTON HEAD IS MOSUNNY 82 75 78 SW9 30.11R  
WALTERBORO FAIR 82 73 74 CALM 30.10S  
ALLENDALE FAIR 82 73 74 CALM 30.09S  
   
..SOUTHERN MIDLANDS AND PEE DEE
 
 
 
CITY SKY/WX TMP DP RH WIND PRES REMARKS
 
GEORGETOWN FAIR 82 77 83 SW3 30.10S HX 91  
KINGSTREE FAIR 82 73 74 CALM 30.09S  
ORANGEBURG FAIR 81 70 69 CALM 30.10R  
BARNWELL FAIR 84 73 70 CALM 30.10S HX 91  
AIKEN FAIR 84 68 58 CALM 30.13S  
MANNING FAIR 79 68 69 CALM 30.09S  
COLUMBIA FAIR 87 71 58 CALM 30.08S HX 93  
SUMTER MOSUNNY 85 68 56 CALM 30.08S  
FLORENCE FAIR 85 72 65 VRB3 30.09R HX 91  
MYRTLE BEACH FAIR 84 76 76 SE8 30.10R HX 93  
N MYRTLE BEACH FAIR 82 75 79 SW9 30.09R  
 

 
 
GAZ063-065-086>088-099>101-113>116-118-119-134>141-150-151600-   
..SOUTHEAST GEORGIA
 
 
 
CITY SKY/WX TMP DP RH WIND PRES REMARKS
 
SAVANNAH ARPT CLOUDY 80 75 84 W7 30.11S  
HUNTER AAF PTSUNNY 84 75 74 SW7 30.08R HX 92  
FORT STEWART PTSUNNY 84 75 74 MISG 30.08S HX 92  
STATESBORO FAIR 81 72 72 CALM 30.10S  
SYLVANIA FAIR 83 74 75 CALM 30.11S  
CLAXTON FAIR 83 75 76 CALM 30.11S HX 90  
   
..CSRA, CENTRAL AND FAR SOUTHEAST GEORGIA
 
 
 
CITY SKY/WX TMP DP RH WIND PRES REMARKS
 
THOMSON FAIR 85 67 55 W3 30.16R  
AUGUSTA-BUSH FAIR 84 75 74 CALM 30.09R HX 92  
AUGUSTA-DANIEL FAIR 85 73 67 CALM 30.10R HX 91  
SWAINSBORO FAIR 86 73 66 CALM 30.11S HX 93  
VIDALIA FAIR 84 72 65 S5 30.11S  
EASTMAN CLOUDY 83 32 15 SW3 30.14R  
HAZLEHURST FAIR 85 73 67 CALM 30.11R HX 91  
ALMA CLOUDY 84 75 74 SW6 30.11R HX 92  
WAYCROSS PTSUNNY 84 79 85 S7 30.11S HX 95  
JESUP NOT AVBL  
BAXLEY CLOUDY 81 79 94 SW5 30.11S  
BRUNSWICK PTSUNNY 82 73 74 W3 30.12S  
SAINT SIMONS FAIR 86 74 67 SW9 30.11R HX 94  
 

 
 
SCZ027-028-034-036>038-045-046-048>050-GAZ119-141-151600-   
..LAKE AND SUPPLEMENTAL COASTAL OBSERVATIONS
 
 
 
STATION/POSITION TIME TEMP WIND PRES WAVE SWELL
 
AIR SEA DIR/SP/G HT/PER HT/PER/DIR  
(UTC) (F) (DEG/KT/KT) (MB) (FT/S) (FT/S/D)  
WINYAH BAY 1445 83 270/ 4 1019.0S  
LAKE MURRAY 1420 85 CALM / 1 1017.9  
ACE BASIN NERRS 1445 84 240/ 3 1019.0S  
FORT PULASKI 1448 82 84 250/ 5/ 7 1019.9R  
SAPELO ISLAND 1500 85 240/ 6 1019.0  
 

 
 
ANZ835-935-AMZ111-154-330-350-352-354-370-450-454-472-151600-   
..C-MAN AND BUOY OBSERVATIONS
 
 
 
STATION/POSITION TIME TEMP WIND PRES WAVE SWELL
 
AIR SEA DIR/SP/G HT/PER HT/PER/DIR  
(UTC) (F) (DEG/KT/KT) (MB) (FT/S) (FT/S/D)  
BUOY 41004 1510 83 84 230/ 14/ 16 1019.5  
BUOY 41008 1450 81 82 190/ 10/ 10 1019.7R 2/ 7 2/100/ 7  
FOLLY BEACH CMAN 1500 81 210/ 10/ 11 1019.9R  
CAPERS NEARSHORE 1508 81 82 260/ 6/ 8 1018.9R  
FRIPP NEARSHORE 1508 81 84 240/ 10/ 14 1018.9R  
 
 
STATION/POSITION TIME TEMP WIND PRES WAVE SWELL
 
AIR SEA DIR/SP/G HT/PER HT/PER/DIR  
(UTC) (F) (DEG/KT/KT) (MB) (FT/S) (FT/S/D)  
5E ST. MARYS GA 1500 80 N/A 2/ 7  
FRYING PAN BUOY 1510 81 84 240/ 10/ 10 1019.2  
BUOY 41025 1510 81 84 260/ 8/ 10 1019.2  
CAPE LOOKOUT NC 1500 240/ 9/ 10 1018.8S  
BUOY 41002 1510 83 200/ 14/ 16 1020.5  
BUOY 41010 1510 84 85 160/ 8/ 10 1021.1  
ST AUGUSTINE FL 1500 78 78 130/ 9/ 9 1020.7R  
 

 
 
 
CLICK HERE TO GO TO PREVIOUS BULLETINS.

The Nexlab SC Page
The Nexlab GA Page Main Text Page